Omak, WA

3:28 AM PDT on May 23, 2017 (GMT -0700)
Omak

Weather History for KOMK - May, 2014

Change the Weather History Date:

Monday, May 19, 2014

  Actual Average Record
Temperature  
Mean Temperature 61 °F 59 °F  
Max Temperature 73 °F 73 °F 89 °F (1993)
Min Temperature 48 °F 45 °F 30 °F (2003)
Degree Days  
Heating Degree Days 4 7  
Month to date heating degree days 139 173  
Since 1 July heating degree days 6342 6212  
Cooling Degree Days 0 1  
Month to date cooling degree days 5 9  
Year to date cooling degree days 5 10  
Growing Degree Days 11 (Base 50)    
Moisture  
Dew Point 41 °F    
Average Humidity 49    
Maximum Humidity 71    
Minimum Humidity 27    
Precipitation  
Precipitation T in 0.03 in 0.67 in (2010)
Month to date precipitation 0.38 0.78  
Year to date precipitation 4.54 6.31  
Sea Level Pressure  
Sea Level Pressure 29.87 in    
Wind  
Wind Speed 7 mph (West)    
Max Wind Speed 23 mph    
Max Gust Speed 31 mph    
Visibility 10 miles    
Events Rain    
T = Trace of Precipitation, MM = Missing Value Source: NWS Daily Summary

Daily Weather History Graph

Daily Weather History Graph

Search for Another Location

Airport or City:

Trip Planner

Search our weather history database for the weather conditions in past years. The results will help you decide how hot, cold, wet, or windy it might be!

Date:

Astronomy

May. 19, 2014 Rise Set
Actual Time 5:12 AM PDT 8:37 PM PDT
Civil Twilight 4:34 AM PDT 9:15 PM PDT
Nautical Twilight 3:43 AM PDT 10:06 PM PDT
Astronomical Twilight 2:37 AM PDT 11:14 PM PDT
Moon 12:21 AM PDT (5/19) 10:24 AM PDT (5/19)
Length of Visible Light 16h 41m
Length of Day
15h 24m
Waning Gibbous, 70% of the Moon is Illuminated
May 19
Waning Gibbous
May 21
Last Quarter
May 28
New
Jun 5
First Quarter
Jun 12
Full

Hourly Weather History & Observations

Time (PDT) Temp. Dew Point Humidity Pressure Visibility Wind Dir Wind Speed Gust Speed Precip Events Conditions
12:53 AM 55.0 °F 41.0 °F 59% 29.77 in 10.0 mi NNW 5.8 mph - N/A   Mostly Cloudy
1:53 AM 55.0 °F 39.9 °F 57% 29.78 in 10.0 mi NW 10.4 mph - N/A   Overcast
2:53 AM 53.1 °F 39.9 °F 61% 29.79 in 10.0 mi WNW 11.5 mph - N/A   Overcast
3:53 AM 50.0 °F 39.9 °F 68% 29.81 in 10.0 mi NW 9.2 mph - N/A   Mostly Cloudy
4:53 AM 50.0 °F 39.9 °F 68% 29.83 in 10.0 mi NW 6.9 mph - N/A   Overcast
6:53 AM 53.1 °F 41.0 °F 64% 29.87 in 10.0 mi NNE 6.9 mph - N/A   Mostly Cloudy
7:53 AM 55.0 °F 43.0 °F 64% 29.88 in 10.0 mi North 4.6 mph - N/A   Overcast
8:53 AM 59.0 °F 41.0 °F 51% 29.89 in 10.0 mi Variable 3.5 mph - N/A   Mostly Cloudy
9:53 AM 63.0 °F 42.1 °F 46% 29.89 in 10.0 mi Calm Calm - N/A   Clear
11:53 AM 69.1 °F 39.0 °F 33% 29.88 in 10.0 mi ESE 9.2 mph - N/A   Clear
12:53 PM 72.0 °F 36.0 °F 27% 29.88 in 10.0 mi SSE 10.4 mph 18.4 mph N/A   Mostly Cloudy
1:53 PM 71.1 °F 39.0 °F 31% 29.88 in 10.0 mi ESE 10.4 mph 17.3 mph N/A   Clear
2:53 PM 68.0 °F 39.9 °F 36% 29.88 in 10.0 mi NNW 9.2 mph - N/A   Mostly Cloudy
3:53 PM 66.0 °F 42.1 °F 42% 29.89 in 10.0 mi SW 5.8 mph - 0.00 in Rain Light Rain
4:53 PM 66.9 °F 41.0 °F 39% 29.90 in 10.0 mi South 10.4 mph 23.0 mph 0.00 in   Partly Cloudy
5:53 PM 69.1 °F 39.0 °F 33% 29.90 in 10.0 mi ESE 6.9 mph - N/A   Clear
6:53 PM 68.0 °F 42.1 °F 39% 29.89 in 10.0 mi South 8.1 mph - N/A   Clear
7:53 PM 64.9 °F 45.0 °F 48% 29.91 in 10.0 mi SW 3.5 mph - N/A   Clear
8:53 PM 55.9 °F 44.1 °F 64% 29.92 in 10.0 mi West 4.6 mph - N/A   Clear
9:53 PM 55.9 °F 43.0 °F 62% 29.94 in 10.0 mi West 5.8 mph - N/A   Scattered Clouds
11:53 PM 52.0 °F 42.1 °F 69% 29.96 in 10.0 mi WNW 6.9 mph - N/A   Clear